Grand Rapids, MI

10:25 AM EDT on September 18, 2019 (GMT -0400)
Gerald R. Ford International

Weather History for KGRR - July, 2019

Change the Weather History Date:

Saturday, July 27, 2019

  Actual Average Record
Temperature  
Mean Temperature 79 °F 72 °F  
Max Temperature 87 °F 82 °F 101 °F (1916)
Min Temperature 71 °F 62 °F 47 °F (1977)
Degree Days  
Heating Degree Days 0 0  
Month to date heating degree days 0 0  
Since 1 June heating degree days 49 45  
Since 1 July heating degree days 0 0  
Cooling Degree Days 14 8  
Month to date cooling degree days 297 213  
Year to date cooling degree days 414 405  
Since 1 June cooling degree days 408 358  
Growing Degree Days 29 (Base 50)    
Moisture  
Dew Point 63 °F    
Average Humidity 56    
Maximum Humidity 69    
Minimum Humidity 43    
Precipitation  
Precipitation 0.01 in 0.12 in 3.49 in (2011)
Month to date precipitation 3.63 3.30  
Year to date precipitation 26.56 20.65  
Snow  
Snow 0.00 in 0.00 in 0.00 in (2006)
Month to date snowfall 0.0 0.0  
Since 1 June snowfall 0.0 0.0  
Since 1 July snowfall 0.0 0.0  
Snow Depth 0.00 in    
Sea Level Pressure  
Sea Level Pressure 30.08 in    
Wind  
Wind Speed 14 mph (SW)    
Max Wind Speed 28 mph    
Max Gust Speed 36 mph    
Visibility 10 miles    
Events      
T = Trace of Precipitation, MM = Missing Value Source: NWS Daily Summary

Daily Weather History Graph

Daily Weather History Graph

Search for Another Location

Airport or City:

Astronomy

Jul. 27, 2019 Rise Set
Actual Time 6:27 AM EDT 9:08 PM EDT
Civil Twilight 5:55 AM EDT 9:41 PM EDT
Nautical Twilight 5:14 AM EDT 10:22 PM EDT
Astronomical Twilight 4:26 AM EDT 11:08 PM EDT
Moon 2:14 AM EDT (7/27) 4:58 PM EDT (7/27)
Length of Visible Light 15h 46m
Length of Day
14h 40m
Waning Crescent, 24% of the Moon is Illuminated
Jul 27
Waning Crescent
Jul 31
New
Aug 7
First Quarter
Aug 15
Full
Aug 23
Last Quarter

Hourly Weather History & Observations

Time (EDT) Temp. Heat Index Dew Point Humidity Pressure Visibility Wind Dir Wind Speed Gust Speed Precip Events Conditions
12:53 AM 73.0 °F - 61.0 °F 66% 30.14 in 10.0 mi South 11.5 mph - N/A   Scattered Clouds
1:53 AM 73.0 °F - 60.1 °F 64% 30.13 in 10.0 mi South 10.4 mph - N/A   Partly Cloudy
2:53 AM 72.0 °F - 60.1 °F 66% 30.13 in 10.0 mi SSW 10.4 mph - N/A   Partly Cloudy
3:53 AM 72.0 °F - 60.1 °F 66% 30.12 in 10.0 mi SSW 13.8 mph 20.7 mph N/A   Clear
4:53 AM 72.0 °F - 60.1 °F 66% 30.11 in 10.0 mi SSW 9.2 mph - N/A   Partly Cloudy
5:53 AM 71.1 °F - 60.1 °F 68% 30.12 in 10.0 mi SSW 11.5 mph - N/A   Mostly Cloudy
6:53 AM 71.1 °F - 61.0 °F 70% 30.12 in 10.0 mi SSW 9.2 mph - N/A   Mostly Cloudy
7:53 AM 73.0 °F - 61.0 °F 66% 30.11 in 10.0 mi SSW 12.7 mph - N/A   Mostly Cloudy
8:53 AM 75.0 °F - 62.1 °F 64% 30.12 in 10.0 mi SSW 10.4 mph - N/A   Mostly Cloudy
9:53 AM 77.0 °F - 63.0 °F 62% 30.11 in 10.0 mi SW 18.4 mph 25.3 mph N/A   Mostly Cloudy
10:53 AM 79.0 °F - 64.0 °F 60% 30.10 in 10.0 mi SSW 17.3 mph 27.6 mph N/A   Mostly Cloudy
11:53 AM 79.0 °F - 64.0 °F 60% 30.10 in 10.0 mi SSW 10.4 mph - N/A   Mostly Cloudy
12:53 PM 84.0 °F 85.8 °F 64.9 °F 53% 30.08 in 10.0 mi SW 16.1 mph 28.8 mph N/A   Mostly Cloudy
1:53 PM 84.9 °F 86.1 °F 64.0 °F 49% 30.06 in 10.0 mi WSW 20.7 mph 33.4 mph N/A   Mostly Cloudy
2:53 PM 87.1 °F 87.8 °F 63.0 °F 44% 30.05 in 10.0 mi WSW 23.0 mph 35.7 mph N/A   Mostly Cloudy
3:53 PM 86.0 °F 86.3 °F 62.1 °F 44% 30.04 in 10.0 mi SW 24.2 mph 35.7 mph N/A   Mostly Cloudy
4:53 PM 82.9 °F 84.4 °F 64.0 °F 53% 30.04 in 10.0 mi SW 17.3 mph 25.3 mph N/A   Mostly Cloudy
5:53 PM 82.9 °F 84.6 °F 64.9 °F 54% 30.03 in 10.0 mi WSW 12.7 mph - N/A   Mostly Cloudy
6:53 PM 82.0 °F 84.1 °F 66.0 °F 58% 30.03 in 10.0 mi SW 12.7 mph - N/A   Mostly Cloudy
7:53 PM 82.0 °F 84.1 °F 66.0 °F 58% 30.02 in 10.0 mi SSW 11.5 mph - N/A   Mostly Cloudy
8:53 PM 82.0 °F 83.8 °F 64.9 °F 56% 30.01 in 10.0 mi SSW 15.0 mph 25.3 mph N/A   Mostly Cloudy
9:53 PM 80.1 °F 81.9 °F 64.9 °F 60% 30.01 in 10.0 mi SSW 9.2 mph - N/A   Mostly Cloudy
10:53 PM 77.0 °F - 66.0 °F 69% 30.02 in 10.0 mi SSW 6.9 mph - 0.01 in   Mostly Cloudy